Time,TemperatureF,DewpointF,PressureIn,WindDirection,WindDirectionDegrees,WindSpeedMPH,WindSpeedGustMPH,Humidity,HourlyPrecipIn,Conditions,Clouds,dailyrainin,SolarRadiationWatts/m^2,SoftwareType,DateUTC
2013-03-18 00:12:00,28.0,21.0,-100.00,SE,143,9.0,17.0,76,0.00,,,0.00,1.000000,,2013-03-18 05:12:00,
2013-03-18 00:22:00,28.0,21.0,-100.00,SE,143,9.0,17.0,76,0.00,,,0.00,1.000000,,2013-03-18 05:22:00,
2013-03-18 00:32:00,28.0,21.0,-100.00,SE,143,9.0,17.0,76,0.00,,,0.00,1.000000,,2013-03-18 05:32:00,
2013-03-18 00:43:00,28.0,21.0,-100.00,SE,143,9.0,17.0,76,0.00,,,0.00,1.000000,,2013-03-18 05:43:00,
2013-03-18 01:12:00,29.0,23.0,-100.00,SE,143,10.0,18.0,79,0.00,,,0.00,1.000000,,2013-03-18 06:12:00,
2013-03-18 01:22:00,29.0,23.0,-100.00,SE,143,10.0,18.0,79,0.00,,,0.00,1.000000,,2013-03-18 06:22:00,
2013-03-18 01:32:00,29.0,23.0,-100.00,SE,143,10.0,18.0,79,0.00,,,0.00,1.000000,,2013-03-18 06:32:00,
2013-03-18 01:42:00,29.0,23.0,-100.00,SE,143,10.0,18.0,79,0.00,,,0.00,1.000000,,2013-03-18 06:42:00,
2013-03-18 02:12:00,29.0,24.0,-100.00,SE,144,11.0,17.0,81,0.00,,,0.00,1.000000,,2013-03-18 07:12:00,
2013-03-18 02:22:00,29.0,24.0,-100.00,SE,144,11.0,17.0,81,0.00,,,0.00,1.000000,,2013-03-18 07:22:00,
2013-03-18 02:32:00,29.0,24.0,-100.00,SE,144,11.0,17.0,81,0.00,,,0.00,1.000000,,2013-03-18 07:32:00,
2013-03-18 02:42:00,29.0,24.0,-100.00,SE,144,11.0,17.0,81,0.00,,,0.00,1.000000,,2013-03-18 07:42:00,
2013-03-18 03:12:00,30.0,25.0,-100.00,SSE,149,11.0,22.0,81,0.00,,,0.00,1.000000,,2013-03-18 08:12:00,
2013-03-18 03:22:00,30.0,25.0,-100.00,SSE,149,11.0,22.0,81,0.00,,,0.00,1.000000,,2013-03-18 08:22:00,
2013-03-18 03:32:00,30.0,25.0,-100.00,SSE,149,11.0,22.0,81,0.00,,,0.00,1.000000,,2013-03-18 08:32:00,
2013-03-18 03:43:00,30.0,25.0,-100.00,SSE,149,11.0,22.0,81,0.00,,,0.00,1.000000,,2013-03-18 08:43:00,
2013-03-18 04:12:00,31.0,26.0,-100.00,SSE,167,11.0,22.0,81,0.00,,,0.00,1.000000,,2013-03-18 09:12:00,
2013-03-18 04:22:00,31.0,26.0,-100.00,SSE,167,11.0,22.0,81,0.00,,,0.00,1.000000,,2013-03-18 09:22:00,
2013-03-18 04:33:00,31.0,26.0,-100.00,SSE,167,11.0,22.0,81,0.00,,,0.00,1.000000,,2013-03-18 09:33:00,
2013-03-18 04:43:00,31.0,26.0,-100.00,SSE,167,11.0,22.0,81,0.00,,,0.00,1.000000,,2013-03-18 09:43:00,
2013-03-18 05:13:00,29.0,29.0,-100.00,SSE,156,7.0,21.0,100,0.00,,,0.00,1.000000,,2013-03-18 10:13:00,
2013-03-18 05:23:00,29.0,29.0,-100.00,SSE,156,7.0,21.0,100,0.00,,,0.00,1.000000,,2013-03-18 10:23:00,
2013-03-18 05:33:00,29.0,29.0,-100.00,SSE,156,7.0,21.0,100,0.00,,,0.00,1.000000,,2013-03-18 10:33:00,
2013-03-18 05:42:00,29.0,29.0,-100.00,SSE,156,7.0,21.0,100,0.00,,,0.00,1.000000,,2013-03-18 10:42:00,
2013-03-18 06:13:00,29.0,29.0,-100.00,SSE,162,7.0,13.0,100,0.00,,,-99.99,1.000000,,2013-03-18 11:13:00,
2013-03-18 06:22:00,29.0,29.0,-100.00,SSE,162,7.0,13.0,100,0.00,,,-99.99,1.000000,,2013-03-18 11:22:00,
2013-03-18 06:32:00,29.0,29.0,-100.00,SSE,162,7.0,13.0,100,0.00,,,-99.99,1.000000,,2013-03-18 11:32:00,
2013-03-18 06:42:00,29.0,29.0,-100.00,SSE,162,7.0,13.0,100,0.00,,,-99.99,1.000000,,2013-03-18 11:42:00,
2013-03-18 07:12:00,29.0,29.0,-100.00,SSE,160,7.0,14.0,100,0.00,,,0.00,1.000000,,2013-03-18 12:12:00,
2013-03-18 07:22:00,29.0,29.0,-100.00,SSE,160,7.0,14.0,100,0.00,,,0.00,1.000000,,2013-03-18 12:22:00,
2013-03-18 07:32:00,29.0,29.0,-100.00,SSE,160,7.0,14.0,100,0.00,,,0.00,1.000000,,2013-03-18 12:32:00,
2013-03-18 07:42:00,29.0,29.0,-100.00,SSE,160,7.0,14.0,100,0.00,,,0.00,1.000000,,2013-03-18 12:42:00,
2013-03-18 08:12:00,29.0,29.0,-100.00,South,178,7.0,13.0,100,0.00,,,0.00,2.000000,,2013-03-18 13:12:00,
2013-03-18 08:22:00,29.0,29.0,-100.00,South,178,7.0,13.0,100,0.00,,,0.00,2.000000,,2013-03-18 13:22:00,
2013-03-18 08:33:00,29.0,29.0,-100.00,South,178,7.0,13.0,100,0.00,,,0.00,2.000000,,2013-03-18 13:33:00,
2013-03-18 08:42:00,29.0,29.0,-100.00,South,178,7.0,13.0,100,0.00,,,0.00,2.000000,,2013-03-18 13:42:00,
2013-03-18 09:12:00,29.0,29.0,-100.00,WSW,244,12.0,19.0,100,0.00,,,0.00,9.000000,,2013-03-18 14:12:00,
2013-03-18 09:22:00,29.0,29.0,-100.00,WSW,244,12.0,19.0,100,0.00,,,0.00,9.000000,,2013-03-18 14:22:00,
2013-03-18 09:32:00,29.0,29.0,-100.00,WSW,244,12.0,19.0,100,0.00,,,0.00,9.000000,,2013-03-18 14:32:00,
2013-03-18 09:42:00,29.0,29.0,-100.00,WSW,244,12.0,19.0,100,0.00,,,0.00,9.000000,,2013-03-18 14:42:00,
2013-03-18 10:12:00,22.0,22.0,-100.00,West,272,18.0,26.0,100,0.00,,,0.00,32.000000,,2013-03-18 15:12:00,
2013-03-18 10:22:00,22.0,22.0,-100.00,West,272,18.0,26.0,100,0.00,,,0.00,32.000000,,2013-03-18 15:22:00,
2013-03-18 10:33:00,22.0,22.0,-100.00,West,272,18.0,26.0,100,0.00,,,0.00,32.000000,,2013-03-18 15:33:00,
2013-03-18 10:43:00,22.0,22.0,-100.00,West,272,18.0,26.0,100,0.00,,,0.00,32.000000,,2013-03-18 15:43:00,
2013-03-18 11:12:00,20.0,17.0,-100.00,West,276,17.0,25.0,89,0.00,,,0.00,134.000000,,2013-03-18 16:12:00,
2013-03-18 11:22:00,20.0,17.0,-100.00,West,276,17.0,25.0,89,0.00,,,0.00,134.000000,,2013-03-18 16:22:00,
2013-03-18 11:32:00,20.0,17.0,-100.00,West,276,17.0,25.0,89,0.00,,,0.00,134.000000,,2013-03-18 16:32:00,
2013-03-18 11:42:00,20.0,17.0,-100.00,West,276,17.0,25.0,89,0.00,,,0.00,134.000000,,2013-03-18 16:42:00,
2013-03-18 12:12:00,20.0,15.0,-100.00,West,270,19.0,27.0,79,0.00,,,-99.99,402.000000,,2013-03-18 17:12:00,
2013-03-18 12:22:00,20.0,15.0,-100.00,West,270,19.0,27.0,79,0.00,,,-99.99,402.000000,,2013-03-18 17:22:00,
2013-03-18 12:32:00,20.0,15.0,-100.00,West,270,19.0,27.0,79,0.00,,,-99.99,402.000000,,2013-03-18 17:32:00,
2013-03-18 12:42:00,20.0,15.0,-100.00,West,270,19.0,27.0,79,0.00,,,-99.99,402.000000,,2013-03-18 17:42:00,
2013-03-18 13:12:00,20.0,12.0,-100.00,West,274,21.0,33.0,71,0.00,,,0.00,603.000000,,2013-03-18 18:12:00,
2013-03-18 13:22:00,20.0,12.0,-100.00,West,274,21.0,33.0,71,0.00,,,0.00,603.000000,,2013-03-18 18:22:00,
2013-03-18 13:32:00,20.0,12.0,-100.00,West,274,21.0,33.0,71,0.00,,,0.00,603.000000,,2013-03-18 18:32:00,
2013-03-18 13:42:00,20.0,12.0,-100.00,West,274,21.0,33.0,71,0.00,,,0.00,603.000000,,2013-03-18 18:42:00,
2013-03-18 14:12:00,18.0,11.0,-100.00,West,275,18.0,29.0,73,0.00,,,0.00,526.000000,,2013-03-18 19:12:00,
2013-03-18 14:22:00,18.0,11.0,-100.00,West,275,18.0,29.0,73,0.00,,,0.00,526.000000,,2013-03-18 19:22:00,
2013-03-18 14:33:00,18.0,11.0,-100.00,West,275,18.0,29.0,73,0.00,,,0.00,526.000000,,2013-03-18 19:33:00,
2013-03-18 14:42:00,18.0,11.0,-100.00,West,275,18.0,29.0,73,0.00,,,0.00,526.000000,,2013-03-18 19:42:00,
2013-03-18 15:12:00,18.0,10.0,-100.00,West,276,19.0,31.0,70,0.00,,,0.00,491.000000,,2013-03-18 20:12:00,
2013-03-18 15:23:00,18.0,10.0,-100.00,West,276,19.0,31.0,70,0.00,,,0.00,491.000000,,2013-03-18 20:23:00,
2013-03-18 15:33:00,18.0,10.0,-100.00,West,276,19.0,31.0,70,0.00,,,0.00,491.000000,,2013-03-18 20:33:00,
2013-03-18 15:42:00,18.0,10.0,-100.00,West,276,19.0,31.0,70,0.00,,,0.00,491.000000,,2013-03-18 20:42:00,
2013-03-18 16:12:00,18.0,10.0,-100.00,West,278,20.0,30.0,69,0.00,,,0.00,409.000000,,2013-03-18 21:12:00,
2013-03-18 16:22:00,18.0,10.0,-100.00,West,278,20.0,30.0,69,0.00,,,0.00,409.000000,,2013-03-18 21:22:00,
2013-03-18 16:32:00,18.0,10.0,-100.00,West,278,20.0,30.0,69,0.00,,,0.00,409.000000,,2013-03-18 21:32:00,
2013-03-18 16:42:00,18.0,10.0,-100.00,West,278,20.0,30.0,69,0.00,,,0.00,409.000000,,2013-03-18 21:42:00,
2013-03-18 17:13:00,17.0,8.0,-100.00,West,276,23.0,32.0,66,0.00,,,0.00,377.000000,,2013-03-18 22:13:00,
2013-03-18 17:23:00,17.0,8.0,-100.00,West,276,23.0,32.0,66,0.00,,,0.00,377.000000,,2013-03-18 22:23:00,
2013-03-18 17:33:00,17.0,8.0,-100.00,West,276,23.0,32.0,66,0.00,,,0.00,377.000000,,2013-03-18 22:33:00,
2013-03-18 17:42:00,17.0,8.0,-100.00,West,276,23.0,32.0,66,0.00,,,0.00,377.000000,,2013-03-18 22:42:00,
2013-03-18 18:12:00,16.0,9.0,-100.00,West,278,19.0,36.0,72,0.00,,,0.00,212.000000,,2013-03-18 23:12:00,
2013-03-18 18:22:00,16.0,9.0,-100.00,West,278,19.0,36.0,72,0.00,,,0.00,212.000000,,2013-03-18 23:22:00,
2013-03-18 18:32:00,16.0,9.0,-100.00,West,278,19.0,36.0,72,0.00,,,0.00,212.000000,,2013-03-18 23:32:00,
2013-03-18 18:42:00,16.0,9.0,-100.00,West,278,19.0,36.0,72,0.00,,,0.00,212.000000,,2013-03-18 23:42:00,
2013-03-18 19:12:00,15.0,10.0,-100.00,West,277,18.0,29.0,81,0.00,,,0.00,140.000000,,2013-03-19 00:12:00,
2013-03-18 19:22:00,15.0,10.0,-100.00,West,277,18.0,29.0,81,0.00,,,0.00,140.000000,,2013-03-19 00:22:00,
2013-03-18 19:32:00,15.0,10.0,-100.00,West,277,18.0,29.0,81,0.00,,,0.00,140.000000,,2013-03-19 00:32:00,
2013-03-18 19:42:00,15.0,10.0,-100.00,West,277,18.0,29.0,81,0.00,,,0.00,140.000000,,2013-03-19 00:42:00,
2013-03-18 20:12:00,14.0,9.0,-100.00,West,278,17.0,26.0,79,0.00,,,0.00,16.000000,,2013-03-19 01:12:00,
2013-03-18 20:22:00,14.0,9.0,-100.00,West,278,17.0,26.0,79,0.00,,,0.00,16.000000,,2013-03-19 01:22:00,
2013-03-18 20:32:00,14.0,9.0,-100.00,West,278,17.0,26.0,79,0.00,,,0.00,16.000000,,2013-03-19 01:32:00,
2013-03-18 20:42:00,14.0,9.0,-100.00,West,278,17.0,26.0,79,0.00,,,0.00,16.000000,,2013-03-19 01:42:00,
2013-03-18 21:12:00,13.0,7.0,-100.00,WNW,284,17.0,25.0,78,0.00,,,0.00,1.000000,,2013-03-19 02:12:00,
2013-03-18 21:22:00,13.0,7.0,-100.00,WNW,284,17.0,25.0,78,0.00,,,0.00,1.000000,,2013-03-19 02:22:00,
2013-03-18 21:32:00,13.0,7.0,-100.00,WNW,284,17.0,25.0,78,0.00,,,0.00,1.000000,,2013-03-19 02:32:00,
2013-03-18 21:42:00,13.0,7.0,-100.00,WNW,284,17.0,25.0,78,0.00,,,0.00,1.000000,,2013-03-19 02:42:00,
2013-03-18 22:12:00,13.0,7.0,-100.00,WNW,283,19.0,26.0,77,0.00,,,0.00,1.000000,,2013-03-19 03:12:00,
2013-03-18 22:22:00,13.0,7.0,-100.00,WNW,283,19.0,26.0,77,0.00,,,0.00,1.000000,,2013-03-19 03:22:00,
2013-03-18 22:33:00,13.0,7.0,-100.00,WNW,283,19.0,26.0,77,0.00,,,0.00,1.000000,,2013-03-19 03:33:00,
2013-03-18 22:43:00,13.0,7.0,-100.00,WNW,283,19.0,26.0,77,0.00,,,0.00,1.000000,,2013-03-19 03:43:00,
2013-03-18 23:13:00,12.0,6.0,-100.00,WNW,291,17.0,28.0,75,0.00,,,0.00,1.000000,,2013-03-19 04:13:00,
2013-03-18 23:23:00,12.0,6.0,-100.00,WNW,291,17.0,28.0,75,0.00,,,0.00,1.000000,,2013-03-19 04:23:00,
2013-03-18 23:33:00,12.0,6.0,-100.00,WNW,291,17.0,28.0,75,0.00,,,0.00,1.000000,,2013-03-19 04:33:00,
2013-03-18 23:43:00,12.0,6.0,-100.00,WNW,291,17.0,28.0,75,0.00,,,0.00,1.000000,,2013-03-19 04:43:00,